Terminal Aerodrome Forecast
Issued by NWS Atlanta, GA

Home | Current Version | Previous Version | Text Only | Print | Product List | Glossary On
Versions: 1 2 3 4 5 6 7 8 9 10 11 12 13 14 15 16 17 18 19 20 21 22 23
000
FTUS42 KFFC 011525 AAB
TAFCSG
TAF AMD
KCSG 011525Z 0115/0212 26009KT P6SM SCT050
      TEMPO 0121/0201 VRB15G25KT 4SM TSRA BKN035CB
     FM020100 28006KT P6SM BKN100
     FM020800 26005KT P6SM SCT015 BKN050=

USA.gov is the U.S. government's official web portal to all federal, state and local government web resources and services.